Kimball, NE

4:06 AM MDT on July 28, 2017 (GMT -0600)
Kimball Municipal-Arraj

Weather History for KIBM - February, 2014

Change the Weather History Date:

Friday, February 28, 2014

  Actual Average (KSNY) Record (KSNY)
Temperature  
Mean Temperature 26 °F -  
Max Temperature 39 °F 50 °F 74 °F (1972)
Min Temperature 12 °F 22 °F -21 °F (1962)
Degree Days  
Heating Degree Days 40    
Moisture  
Dew Point 24 °F    
Average Humidity 83    
Maximum Humidity 90    
Minimum Humidity 71    
Precipitation  
Precipitation 0.00 in - - ()
Sea Level Pressure  
Sea Level Pressure 29.71 in    
Wind  
Wind Speed 13 mph (NNE)    
Max Wind Speed 23 mph    
Max Gust Speed 30 mph    
Visibility 10 miles    
Events Snow    
Averages and records for this station are not official NWS values.
T = Trace of Precipitation, MM = Missing Value Source: NWS Daily Summary

Daily Weather History Graph

Daily Weather History Graph

Search for Another Location

Airport or City:

Trip Planner

Search our weather history database for the weather conditions in past years. The results will help you decide how hot, cold, wet, or windy it might be!

Date:

Astronomy

Feb. 28, 2014 Rise Set
Actual Time 7:30 AM CST 6:44 PM CST
Civil Twilight 7:02 AM CST 7:12 PM CST
Nautical Twilight 6:30 AM CST 7:44 PM CST
Astronomical Twilight 5:59 AM CST 8:16 PM CST
Moon 6:46 AM CST 6:24 PM CST
Length of Visible Light 12h 09m
Length of Day
11h 14m
Waning Crescent, 1% of the Moon is Illuminated
Feb 28
Waning Crescent
Mar 1
New
Mar 8
First Quarter
Mar 16
Full
Mar 23
Last Quarter

Hourly Weather History & Observations

Time (CST) Temp. Windchill Dew Point Humidity Pressure Visibility Wind Dir Wind Speed Gust Speed Precip Events Conditions
12:15 AM 39.9 °F 32.9 °F 31.8 °F 73% 29.54 in 10.0 mi WSW 11.5 mph - N/A   Overcast
12:35 AM 39.2 °F 31.6 °F 32.0 °F 75% 29.54 in 10.0 mi WSW 12.7 mph - N/A   Overcast
12:55 AM 38.7 °F 30.9 °F 32.0 °F 77% 29.53 in 10.0 mi WSW 12.7 mph - N/A   Overcast
1:15 AM 38.5 °F 31.1 °F 32.0 °F 78% 29.53 in 10.0 mi WSW 11.5 mph 17.3 mph N/A   Overcast
1:35 AM 39.0 °F 30.3 °F 32.0 °F 76% 29.54 in 10.0 mi SW 16.1 mph - N/A   Overcast
1:55 AM 37.4 °F 28.5 °F 32.0 °F 81% 29.54 in 10.0 mi SW 15.0 mph - N/A   Overcast
2:15 AM 37.4 °F 28.9 °F 32.0 °F 81% 29.54 in 10.0 mi SW 13.8 mph - N/A   Overcast
2:35 AM 37.2 °F 29.1 °F 32.0 °F 81% 29.54 in 10.0 mi SW 12.7 mph - N/A   Mostly Cloudy
2:55 AM 37.4 °F 29.3 °F 32.0 °F 81% 29.53 in 10.0 mi SW 12.7 mph - N/A   Scattered Clouds
3:15 AM 36.7 °F 29.4 °F 32.0 °F 83% 29.53 in 10.0 mi SW 10.4 mph - N/A   Clear
3:35 AM 35.6 °F 28.6 °F 32.0 °F 87% 29.53 in 10.0 mi WSW 9.2 mph - N/A   Clear
3:55 AM 36.0 °F 29.0 °F 32.0 °F 86% 29.53 in 10.0 mi WSW 9.2 mph - N/A   Clear
4:15 AM 35.1 °F 28.6 °F 31.5 °F 87% 29.53 in 10.0 mi WSW 8.1 mph - N/A   Clear
4:35 AM 36.0 °F 28.0 °F 31.8 °F 85% 29.53 in 10.0 mi WSW 11.5 mph - N/A   Clear
4:55 AM 34.7 °F 26.9 °F 31.1 °F 87% 29.53 in 10.0 mi West 10.4 mph - N/A   Clear
5:15 AM 35.2 °F 28.8 °F 31.1 °F 85% 29.53 in 10.0 mi West 8.1 mph - N/A   Clear
5:35 AM 32.9 °F 25.3 °F 30.2 °F 90% 29.54 in 10.0 mi WNW 9.2 mph - N/A   Clear
5:55 AM 32.7 °F 24.5 °F 29.5 °F 88% 29.54 in 10.0 mi West 10.4 mph - N/A   Scattered Clouds
6:15 AM 36.0 °F 27.1 °F 31.1 °F 82% 29.56 in 10.0 mi West 13.8 mph - N/A   Mostly Cloudy
6:35 AM 36.9 °F 27.1 °F 31.5 °F 81% 29.57 in 10.0 mi WNW 17.3 mph - N/A   Mostly Cloudy
6:55 AM 39.2 °F 29.6 °F 30.9 °F 72% 29.57 in 10.0 mi West 19.6 mph - N/A   Overcast
7:15 AM 38.3 °F 27.8 °F 30.2 °F 73% 29.57 in 10.0 mi WNW 21.9 mph - N/A   Mostly Cloudy
7:35 AM 38.5 °F 27.8 °F 30.4 °F 73% 29.58 in 10.0 mi WNW 23.0 mph - N/A   Overcast
7:55 AM 38.7 °F 29.8 °F 30.7 °F 73% 29.59 in 10.0 mi WNW 16.1 mph - N/A   Mostly Cloudy
8:15 AM 38.1 °F 29.8 °F 30.2 °F 73% 29.60 in 10.0 mi NW 13.8 mph - N/A   Scattered Clouds
8:35 AM 39.4 °F 31.4 °F 30.6 °F 71% 29.62 in 10.0 mi NW 13.8 mph - N/A   Mostly Cloudy
8:55 AM 37.4 °F 28.2 °F 30.2 °F 75% 29.65 in 10.0 mi NNW 16.1 mph 24.2 mph N/A   Mostly Cloudy
9:15 AM 34.7 °F 23.1 °F 29.1 °F 80% 29.68 in 10.0 mi North 21.9 mph 27.6 mph N/A   Scattered Clouds
9:35 AM 31.8 °F 19.3 °F 26.6 °F 81% 29.70 in 10.0 mi North 21.9 mph - N/A   Clear
9:55 AM 30.7 °F 17.5 °F 25.7 °F 82% 29.71 in 10.0 mi North 23.0 mph 29.9 mph N/A   Mostly Cloudy
10:15 AM 29.8 °F 18.4 °F 25.2 °F 83% 29.75 in 10.0 mi North 16.1 mph - N/A   Overcast
10:35 AM 29.1 °F 18.4 °F 24.8 °F 84% 29.75 in 10.0 mi North 13.8 mph - N/A   Overcast
10:55 AM 28.9 °F 17.3 °F 24.6 °F 84% 29.75 in 10.0 mi North 16.1 mph 19.6 mph N/A   Overcast
11:15 AM 28.6 °F 16.8 °F 24.1 °F 83% 29.77 in 10.0 mi North 16.1 mph - N/A   Overcast
11:35 AM 27.9 °F 14.7 °F 23.9 °F 85% 29.77 in 10.0 mi North 19.6 mph - N/A   Overcast
11:55 AM 27.1 °F 15.4 °F 23.5 °F 86% 29.80 in 10.0 mi North 15.0 mph - N/A   Overcast
12:15 PM 26.6 °F 14.3 °F 23.2 °F 87% 29.80 in 10.0 mi North 16.1 mph - N/A   Overcast
12:35 PM 27.0 °F 15.2 °F 22.6 °F 84% 29.80 in 10.0 mi North 15.0 mph - N/A   Overcast
12:55 PM 26.8 °F 14.5 °F 22.8 °F 85% 29.79 in 10.0 mi NNE 16.1 mph - N/A   Overcast
1:15 PM 26.4 °F 14.0 °F 21.4 °F 81% 29.79 in 10.0 mi NNE 16.1 mph - N/A   Overcast
1:35 PM 26.4 °F 14.5 °F 21.2 °F 81% 29.78 in 10.0 mi NNE 15.0 mph - N/A   Overcast
1:55 PM 26.4 °F 15.0 °F 21.2 °F 81% 29.78 in 10.0 mi NNE 13.8 mph - N/A   Overcast
2:15 PM 26.2 °F 15.8 °F 21.0 °F 81% 29.77 in 10.0 mi NNE 11.5 mph - N/A   Overcast
2:35 PM 25.7 °F 15.7 °F 21.0 °F 82% 29.77 in 10.0 mi NNE 10.4 mph - N/A   Overcast
2:55 PM 26.1 °F 15.6 °F 21.2 °F 82% 29.77 in 10.0 mi NNE 11.5 mph - N/A   Overcast
3:15 PM 26.2 °F 15.8 °F 20.8 °F 80% 29.77 in 10.0 mi NE 11.5 mph - N/A   Overcast
3:35 PM 26.1 °F 16.2 °F 21.2 °F 82% 29.77 in 10.0 mi ENE 10.4 mph - N/A   Overcast
3:55 PM 25.5 °F 15.5 °F 20.7 °F 82% 29.77 in 10.0 mi East 10.4 mph - N/A   Overcast
4:15 PM 25.3 °F 15.3 °F 20.8 °F 83% 29.79 in 10.0 mi East 10.4 mph - N/A   Overcast
4:35 PM 23.9 °F 13.5 °F 20.5 °F 87% 29.79 in 10.0 mi East 10.4 mph - N/A   Overcast
4:55 PM 23.2 °F 12.0 °F 19.0 °F 84% 29.79 in 10.0 mi East 11.5 mph - N/A   Overcast
5:15 PM 22.8 °F 10.9 °F 19.4 °F 87% 29.79 in 10.0 mi East 12.7 mph - N/A   Overcast
5:35 PM 22.8 °F 10.9 °F 19.6 °F 87% 29.79 in 10.0 mi East 12.7 mph - N/A   Overcast
5:55 PM 22.5 °F 11.1 °F 19.2 °F 87% 29.79 in 10.0 mi East 11.5 mph - N/A   Overcast
6:15 PM 22.1 °F 10.6 °F 18.5 °F 86% 29.80 in 10.0 mi East 11.5 mph - N/A   Overcast
6:35 PM 21.6 °F 10.6 °F 18.3 °F 87% 29.80 in 10.0 mi East 10.4 mph - N/A   Overcast
6:55 PM 21.0 °F 8.1 °F 18.1 °F 89% 29.81 in 10.0 mi East 13.8 mph - N/A   Overcast
7:15 PM 20.1 °F 6.9 °F 17.4 °F 89% 29.81 in 10.0 mi East 13.8 mph - N/A   Overcast
7:35 PM 19.4 °F 7.2 °F 16.7 °F 89% 29.83 in 10.0 mi East 11.5 mph - N/A   Overcast
7:55 PM 19.0 °F 5.6 °F 16.3 °F 89% 29.84 in 10.0 mi East 13.8 mph - N/A   Overcast
8:15 PM 18.5 °F 4.9 °F 15.8 °F 89% 29.85 in 10.0 mi East 13.8 mph - N/A   Overcast
8:35 PM 18.5 °F 6.1 °F 15.8 °F 89% 29.87 in 10.0 mi East 11.5 mph - N/A   Overcast
8:55 PM 18.5 °F 5.5 °F 15.8 °F 89% 29.87 in 10.0 mi ESE 12.7 mph - N/A   Overcast
9:15 PM 18.1 °F 4.4 °F 15.4 °F 89% 29.87 in 10.0 mi East 13.8 mph - N/A   Overcast
9:35 PM 17.6 °F 2.7 °F 14.7 °F 88% 29.87 in 10.0 mi ESE 16.1 mph - N/A   Overcast
9:55 PM 15.8 °F -0.6 °F 13.1 °F 89% 29.88 in 10.0 mi East 18.4 mph - N/A   Overcast
10:15 PM 14.9 °F -0.3 °F 12.2 °F 89% 29.89 in 10.0 mi East 15.0 mph - N/A   Overcast
10:35 PM 14.0 °F -2.0 °F 11.7 °F 90% 29.89 in 10.0 mi East 16.1 mph - N/A   Overcast
10:55 PM 14.0 °F -2.0 °F 11.3 °F 89% 29.89 in 10.0 mi East 16.1 mph - N/A   Overcast
11:10 PM 13.6 °F -2.4 °F 10.6 °F 88% 29.88 in 10.0 mi East 16.1 mph - N/A   Overcast
11:35 PM 12.7 °F -2.5 °F 9.9 °F 88% 29.90 in 5.0 mi East 13.8 mph - N/A Snow Light Snow
11:55 PM 12.2 °F -3.7 °F 9.1 °F 88% 29.88 in 5.0 mi East 15.0 mph - N/A Snow Light Snow